Preview of NWS' New Version of Forecast
This preview is not operational and should not be used for support decisions.

Regional Weather Roundup (RWR)

Issued by National Weather Service (NWS)

                            
000
ASUS45 KABQ 250110
RWRNM 
NEW MEXICO REGIONAL WEATHER ROUNDUP
NATIONAL WEATHER SERVICE ALBUQUERQUE NM
700 PM MDT SAT AUG 24 2019

NOTE: "FAIR" MEANS FEW OR NO CLOUDS BELOW 12,000 FEET AGL WITH NO
       SIGNIFICANT WEATHER OR OBSTRUCTIONS TO VISION.

      THIS PRODUCT IS RELEASED AS TWO VERSIONS.  ONE VERSION NEAR
      THE TOP OF THE HOUR CONTAINING PRELIMINARY DATA FROM ALBUQUERQUE
      AND OTHER STATIONS.  A FINAL VERSION WITH ADDITIONAL DATA IS 
      ISSUED ABOUT 10 MINUTES AFTER THE HOUR.
 
NMZ501-503-504-510>518-250200-
NORTHWEST PLATEAU/NORTHCENTRAL MOUNTAINS
  
CITY           SKY/WX    TMP DP  RH WIND       PRES   REMARKS
FARMINGTON     FAIR      89  26  10 W10       30.07R                  
LOS ALAMOS       N/A     82  25  12 W7        30.21S                  
SANTA FE       FAIR      87  27  11 NW13      30.11S                  
TAOS           FAIR      83  32  16 NW13      30.19R                  
ANGEL FIRE     FAIR      73  32  22 W9        30.29R                  

$$
NMZ402-403-502-505>509-250200-
WESTCENTRAL MOUNTAINS/SOUTHWEST MOUNTAINS
  
CITY           SKY/WX    TMP DP  RH WIND       PRES   REMARKS
GALLUP         FAIR      86  27  11 W15       30.19S                  
GRANTS         FAIR      85  29  13 W15G21    30.20S                  
SILVER CITY    FAIR      80  54  41 SW8       30.14S                  

$$
NMZ407-409-411-412-250200-
SOUTHERN DESERTS
  
CITY           SKY/WX    TMP DP  RH WIND       PRES   REMARKS
DEMING         FAIR      92  51  24 W15       30.04R                  
LAS CRUCES     FAIR      93  45  19 SW7       30.04R                  
HOLLOMAN AFB   FAIR      95  30  10 CALM      30.00S                  
ALAMOGORDO     FAIR      93  32  11 W7        30.00R                  
T OR C         FAIR      94  35  12 S14       30.03R                  

$$
NMZ519>523-250200-
CENTRAL VALLEYS/CENTRAL HIGHLANDS
  
CITY           SKY/WX    TMP DP  RH WIND       PRES   REMARKS
ALBUQUERQUE    FAIR      93  29  10 NW10      30.04S                  
DOUBLE EAGLE   PTCLDY    91  30  11 W7        30.09S                  
MORIARTY ARPT  FAIR      88  32  13 W8        30.13S                  
CLINES CORNERS FAIR      83  28  13 NW15G25   30.20S                  
BELEN          FAIR      94  28   9 NW7       30.04S                  
SOCORRO        FAIR      91  40  16 E6        30.02R                  

$$
NMZ524>526-539-540-250200-
SOUTHCENTRAL MOUNTAINS
  
CITY           SKY/WX    TMP DP  RH WIND       PRES   REMARKS
RUIDOSO        FAIR      81  37  21 NW7       30.22S                  

$$
NMZ527>531-250200-
NORTHEAST HIGHLANDS/NORTHEAST PLAINS
  
CITY           SKY/WX    TMP DP  RH WIND       PRES   REMARKS
LAS VEGAS      FAIR      83  33  16 W9        30.15R                  
RATON          FAIR      80  41  24 E8        30.08R                  
CLAYTON        FAIR      75  57  53 E18       30.02R                  

$$
NMZ532>537-250200-
EASTCENTRAL PLAINS
  
CITY           SKY/WX    TMP DP  RH WIND       PRES   REMARKS
SANTA ROSA     FAIR      95  39  14 W8        29.96R                  
TUCUMCARI      FAIR      91  54  28 S12       29.90R                  
CANNON AFB     FAIR      89  52  27 S6        29.98R                  
CLOVIS AIRPORT FAIR      84  64  50 S5        29.98R                  

$$
NMZ028-029-538-250200-
SOUTHEAST PLAINS
  
CITY           SKY/WX    TMP DP  RH WIND       PRES   REMARKS
ROSWELL        FAIR      99  45  15 SE13      29.90S HX  95           
ARTESIA        FAIR      97  54  23 S16       29.92S                  
CARLSBAD       FAIR      96  50  20 E7        29.89S                  
HOBBS          FAIR      91  57  31 SE23G29   29.95R                  


$$